Weather in Ayev

Russia / Omsk Oblast     56°55′45″N   72°37′46″E
temp.,
°C
wind,
m/s
gust,
m/s
humid.,
%
clouds,
%
prec.,
mm/h
press.,
hPa
HPBL,
m
10 may, mon
mon1000:00+10ene41150100 0.0 1022353
03:00+8ene31056100 0.0 1023304
06:00+7ene3961100 0.0 1025306
09:00+11ene5845100 0.0 1026838
12:00+15ene573373 0.0 10261526
15:00+17ene46280 0.0 10251963
18:00+17ene46294 0.0 10242056
21:00+12ne34474 0.0 102542
11 may, tue
tue1100:00+9nne33580 0.0 102651
03:00+7ne23700 0.0 102643
06:00+7ne24750 0.0 102777
09:00+12ne35500 0.0 1027752
12:00+16nne35320 0.0 10261477
15:00+19nne45240 0.0 10251837
18:00+19n35240 0.0 10251829
21:00+14nne22412 0.0 102510
12 may, wed
wed1200:00+11sse2244100 0.0 102512
03:00+10ssw224692 0.0 102428
06:00+10wsw2455100 0.0 102363
09:00+16wnw3641100 0.0 1022360
12:00+19nnw464763 0.0 10221446
15:00+20nnw6731100 0.3 10212124
18:00+17nnw68355 0.3 10221826
21:00+13n374576 0.0 1023153
13 may, thu
thu1300:00+10n2350100 0.0 102352
03:00+10nne2348100 0.0 102487
06:00+9nne234868 0.0 1024109
09:00+14n34325 0.0 1024816
12:00+17nnw363414 0.0 10231943
15:00+18nw454515 0.0 10211600
18:00+16wnw365550 0.0 1021386
21:00+15w2579100 0.4 1020158
14 may, fri
fri1400:00+13n51277100 0.7 1021622
03:00+10n4108270 0.0 1023479
06:00+8n388476 0.0 1025435
09:00+10n455599 0.0 1026667
12:00+16nw343168 0.0 10261206
15:00+20wnw35315 0.0 10241511
18:00+21w5114094 0.0 10212237
21:00+19wsw5135426 0.0 1019387